M I D A S
Marine Information and Data Acquisition System
Tripno 1555 of the Zeeleeuw from 2008-08-05 05:30:06 to 2008-08-05 16:48:53
Back to CruiseResearch ActivitiesStationsMapUnderway DataData graphs

EquipmentUnitsComments
TimeDGPSUTC
LatitudeDGPSDM.mWGS84
LongitudeDGPSDM.mWGS84
SpeedMeteo Stationm/sRelative wind speed
DirectionMeteo StationdegRelative wind direction
TemperatureMeteo Stationdeg CelciusAir temperature
PressureMeteo StationPaAtmospheric pressure
HumidityMeteo Station%Relative humidity
Missing or incorrect values are displayed as -999
Metereological data collected by the RV Zeeleeuw from 2008-08-05 05:30:06 to 2008-08-05 16:53:47
                                                                                    Next 1000 lines
Time Latitude Longitude Speed Direction Temperature Pressure Humidity
2008-08-05 05:30:16 51°13.623 2°56.046 -999 -999 -999 -999 -999
2008-08-05 05:30:21 51°13.623 2°56.044 -999 -999 -999 -999 -999
2008-08-05 05:30:26 51°13.624 2°56.041 -999 -999 -999 -999 -999
2008-08-05 05:30:31 51°13.625 2°56.038 -999 -999 -999 -999 -999
2008-08-05 05:30:36 51°13.626 2°56.034 -999 -999 -999 -999 -999
2008-08-05 05:30:41 51°13.627 2°56.029 -999 -999 -999 -999 -999
2008-08-05 05:30:46 51°13.629 2°56.024 -999 -999 -999 -999 -999
2008-08-05 05:30:51 51°13.631 2°56.019 -999 -999 -999 -999 -999
2008-08-05 05:30:56 51°13.633 2°56.013 -999 -999 -999 -999 -999
2008-08-05 05:31:01 51°13.635 2°56.006 -999 -999 -999 -999 -999
2008-08-05 05:31:06 51°13.637 2°55.999 -999 -999 -999 -999 -999
2008-08-05 05:31:11 51°13.639 2°55.992 -999 -999 -999 -999 -999
2008-08-05 05:31:16 51°13.641 2°55.985 -999 -999 -999 -999 -999
2008-08-05 05:31:21 51°13.643 2°55.978 -999 -999 -999 -999 -999
2008-08-05 05:31:26 51°13.645 2°55.97 -999 -999 -999 -999 -999
2008-08-05 05:31:31 51°13.647 2°55.962 -999 -999 -999 -999 -999
2008-08-05 05:31:37 51°13.65 2°55.952 -999 -999 -999 -999 -999
2008-08-05 05:31:41 51°13.652 2°55.945 -999 -999 -999 -999 -999
2008-08-05 05:31:46 51°13.655 2°55.937 -999 -999 -999 -999 -999
2008-08-05 05:31:51 51°13.658 2°55.928 -999 -999 -999 -999 -999
2008-08-05 05:31:56 51°13.66 2°55.919 -999 -999 -999 -999 -999
2008-08-05 05:32:01 51°13.663 2°55.911 -999 -999 -999 -999 -999
2008-08-05 05:32:06 51°13.666 2°55.902 -999 -999 -999 -999 -999
2008-08-05 05:32:11 51°13.669 2°55.893 -999 -999 -999 -999 -999
2008-08-05 05:32:16 51°13.672 2°55.884 -999 -999 -999 -999 -999
2008-08-05 05:32:21 51°13.675 2°55.876 -999 -999 -999 -999 -999
2008-08-05 05:32:26 51°13.677 2°55.868 -999 -999 -999 -999 -999
2008-08-05 05:32:31 51°13.68 2°55.86 -999 -999 -999 -999 -999
2008-08-05 05:32:36 51°13.683 2°55.852 -999 -999 -999 -999 -999
2008-08-05 05:32:41 51°13.685 2°55.844 -999 -999 -999 -999 -999
2008-08-05 05:32:46 51°13.687 2°55.837 -999 -999 -999 -999 -999
2008-08-05 05:32:51 51°13.689 2°55.83 -999 -999 -999 -999 -999
2008-08-05 05:32:56 51°13.691 2°55.822 -999 -999 -999 -999 -999
2008-08-05 05:33:01 51°13.693 2°55.815 -999 -999 -999 -999 -999
2008-08-05 05:33:06 51°13.695 2°55.808 -999 -999 -999 -999 -999
2008-08-05 05:33:11 51°13.697 2°55.801 -999 -999 -999 -999 -999
2008-08-05 05:33:16 51°13.698 2°55.794 -999 -999 -999 -999 -999
2008-08-05 05:33:21 51°13.699 2°55.787 -999 -999 -999 -999 -999
2008-08-05 05:33:26 51°13.7 2°55.781 -999 -999 -999 -999 -999
2008-08-05 05:33:31 51°13.701 2°55.774 -999 -999 -999 -999 -999
2008-08-05 05:33:36 51°13.702 2°55.768 -999 -999 -999 -999 -999
2008-08-05 05:33:41 51°13.703 2°55.762 -999 -999 -999 -999 -999
2008-08-05 05:33:46 51°13.703 2°55.757 -999 -999 -999 -999 -999
2008-08-05 05:33:51 51°13.704 2°55.751 -999 -999 -999 -999 -999
2008-08-05 05:33:56 51°13.704 2°55.746 -999 -999 -999 -999 -999
2008-08-05 05:34:01 51°13.704 2°55.742 -999 -999 -999 -999 -999
2008-08-05 05:34:06 51°13.705 2°55.738 -999 -999 -999 -999 -999
2008-08-05 05:34:11 51°13.705 2°55.734 -999 -999 -999 -999 -999
2008-08-05 05:34:16 51°13.705 2°55.73 -999 -999 -999 -999 -999
2008-08-05 05:34:21 51°13.705 2°55.727 -999 -999 -999 -999 -999
2008-08-05 05:34:26 51°13.705 2°55.724 -999 -999 -999 -999 -999
2008-08-05 05:34:31 51°13.705 2°55.721 -999 -999 -999 -999 -999
2008-08-05 05:34:36 51°13.706 2°55.719 -999 -999 -999 -999 -999
2008-08-05 05:34:41 51°13.706 2°55.718 -999 -999 -999 -999 -999
2008-08-05 05:34:46 51°13.706 2°55.718 -999 -999 -999 -999 -999
2008-08-05 05:34:51 51°13.707 2°55.718 -999 -999 -999 -999 -999
2008-08-05 05:34:56 51°13.708 2°55.719 -999 -999 -999 -999 -999
2008-08-05 05:35:01 51°13.709 2°55.72 -999 -999 -999 -999 -999
2008-08-05 05:35:06 51°13.711 2°55.721 -999 -999 -999 -999 -999
2008-08-05 05:35:11 51°13.713 2°55.722 -999 -999 -999 -999 -999
2008-08-05 05:35:16 51°13.715 2°55.724 -999 -999 -999 -999 -999
2008-08-05 05:35:21 51°13.718 2°55.725 -999 -999 -999 -999 -999
2008-08-05 05:35:26 51°13.721 2°55.726 -999 -999 -999 -999 -999
2008-08-05 05:35:31 51°13.725 2°55.727 -999 -999 -999 -999 -999
2008-08-05 05:35:36 51°13.73 2°55.727 -999 -999 -999 -999 -999
2008-08-05 05:35:41 51°13.735 2°55.725 -999 -999 -999 -999 -999
2008-08-05 05:35:46 51°13.742 2°55.722 -999 -999 -999 -999 -999
2008-08-05 05:35:51 51°13.748 2°55.717 -999 -999 -999 -999 -999
2008-08-05 05:35:56 51°13.755 2°55.711 -999 -999 -999 -999 -999
2008-08-05 05:36:01 51°13.763 2°55.704 -999 -999 -999 -999 -999
2008-08-05 05:36:06 51°13.77 2°55.697 -999 -999 -999 -999 -999
2008-08-05 05:36:11 51°13.777 2°55.689 -999 -999 -999 -999 -999
2008-08-05 05:36:16 51°13.785 2°55.682 -999 -999 -999 -999 -999
2008-08-05 05:36:21 51°13.792 2°55.674 -999 -999 -999 -999 -999
2008-08-05 05:36:26 51°13.801 2°55.667 -999 -999 -999 -999 -999
2008-08-05 05:36:31 51°13.81 2°55.658 -999 -999 -999 -999 -999
2008-08-05 05:36:36 51°13.819 2°55.65 -999 -999 -999 -999 -999
2008-08-05 05:36:41 51°13.829 2°55.641 -999 -999 -999 -999 -999
2008-08-05 05:36:46 51°13.839 2°55.633 -999 -999 -999 -999 -999
2008-08-05 05:36:51 51°13.85 2°55.624 -999 -999 -999 -999 -999
2008-08-05 05:36:56 51°13.861 2°55.615 -999 -999 -999 -999 -999
2008-08-05 05:37:01 51°13.872 2°55.606 -999 -999 -999 -999 -999
2008-08-05 05:37:06 51°13.883 2°55.597 -999 -999 -999 -999 -999
2008-08-05 05:37:11 51°13.893 2°55.587 -999 -999 -999 -999 -999
2008-08-05 05:37:16 51°13.905 2°55.578 -999 -999 -999 -999 -999
2008-08-05 05:37:21 51°13.916 2°55.57 -999 -999 -999 -999 -999
2008-08-05 05:37:26 51°13.927 2°55.561 -999 -999 -999 -999 -999
2008-08-05 05:37:31 51°13.938 2°55.551 -999 -999 -999 -999 -999
2008-08-05 05:37:36 51°13.949 2°55.542 -999 -999 -999 -999 -999
2008-08-05 05:37:41 51°13.96 2°55.532 -999 -999 -999 -999 -999
2008-08-05 05:37:46 51°13.971 2°55.523 -999 -999 -999 -999 -999
2008-08-05 05:37:51 51°13.983 2°55.514 -999 -999 -999 -999 -999
2008-08-05 05:37:56 51°13.994 2°55.504 -999 -999 -999 -999 -999
2008-08-05 05:38:01 51°14.005 2°55.495 -999 -999 -999 -999 -999
2008-08-05 05:38:06 51°14.017 2°55.486 -999 -999 -999 -999 -999
2008-08-05 05:38:11 51°14.028 2°55.476 -999 -999 -999 -999 -999
2008-08-05 05:38:16 51°14.04 2°55.467 -999 -999 -999 -999 -999
2008-08-05 05:38:21 51°14.052 2°55.458 -999 -999 -999 -999 -999
2008-08-05 05:38:26 51°14.064 2°55.449 -999 -999 -999 -999 -999
2008-08-05 05:38:31 51°14.076 2°55.441 -999 -999 -999 -999 -999
2008-08-05 05:38:36 51°14.088 2°55.433 -999 -999 -999 -999 -999
2008-08-05 05:38:41 51°14.099 2°55.424 -999 -999 -999 -999 -999
2008-08-05 05:38:46 51°14.111 2°55.415 -999 -999 -999 -999 -999
2008-08-05 05:38:51 51°14.123 2°55.407 -999 -999 -999 -999 -999
2008-08-05 05:38:56 51°14.135 2°55.397 -999 -999 -999 -999 -999
2008-08-05 05:39:01 51°14.146 2°55.388 -999 -999 -999 -999 -999
2008-08-05 05:39:06 51°14.158 2°55.379 -999 -999 -999 -999 -999
2008-08-05 05:39:11 51°14.17 2°55.369 -999 -999 -999 -999 -999
2008-08-05 05:39:16 51°14.182 2°55.359 -999 -999 -999 -999 -999
2008-08-05 05:39:22 51°14.195 2°55.347 -999 -999 -999 -999 -999
2008-08-05 05:39:26 51°14.204 2°55.339 -999 -999 -999 -999 -999
2008-08-05 05:39:31 51°14.214 2°55.329 -999 -999 -999 -999 -999
2008-08-05 05:39:36 51°14.224 2°55.32 -999 -999 -999 -999 -999
2008-08-05 05:39:41 51°14.234 2°55.31 -999 -999 -999 -999 -999
2008-08-05 05:39:46 51°14.243 2°55.301 -999 -999 -999 -999 -999
2008-08-05 05:39:51 51°14.251 2°55.291 -999 -999 -999 -999 -999
2008-08-05 05:39:56 51°14.259 2°55.282 -999 -999 -999 -999 -999
2008-08-05 05:40:01 51°14.267 2°55.273 -999 -999 -999 -999 -999
2008-08-05 05:40:06 51°14.275 2°55.264 -999 -999 -999 -999 -999
2008-08-05 05:40:11 51°14.282 2°55.254 -999 -999 -999 -999 -999
2008-08-05 05:40:16 51°14.289 2°55.245 -999 -999 -999 -999 -999
2008-08-05 05:40:21 51°14.295 2°55.236 -999 -999 -999 -999 -999
2008-08-05 05:40:26 51°14.301 2°55.226 -999 -999 -999 -999 -999
2008-08-05 05:40:31 51°14.307 2°55.216 -999 -999 -999 -999 -999
2008-08-05 05:40:36 51°14.313 2°55.207 -999 -999 -999 -999 -999
2008-08-05 05:40:41 51°14.319 2°55.197 -999 -999 -999 -999 -999
2008-08-05 05:40:46 51°14.324 2°55.187 -999 -999 -999 -999 -999
2008-08-05 05:40:51 51°14.33 2°55.176 -999 -999 -999 -999 -999
2008-08-05 05:40:56 51°14.336 2°55.166 -999 -999 -999 -999 -999
2008-08-05 05:41:01 51°14.341 2°55.154 -999 -999 -999 -999 -999
2008-08-05 05:41:06 51°14.348 2°55.142 -999 -999 -999 -999 -999
2008-08-05 05:41:11 51°14.354 2°55.129 -999 -999 -999 -999 -999
2008-08-05 05:41:16 51°14.361 2°55.114 -999 -999 -999 -999 -999
2008-08-05 05:41:22 51°14.369 2°55.095 -999 -999 -999 -999 -999
2008-08-05 05:41:26 51°14.375 2°55.082 -999 -999 -999 -999 -999
2008-08-05 05:41:31 51°14.383 2°55.064 -999 -999 -999 -999 -999
2008-08-05 05:41:36 51°14.392 2°55.046 -999 -999 -999 -999 -999
2008-08-05 05:41:41 51°14.401 2°55.027 -999 -999 -999 -999 -999
2008-08-05 05:41:46 51°14.411 2°55.007 -999 -999 -999 -999 -999
2008-08-05 05:41:51 51°14.421 2°54.987 -999 -999 -999 -999 -999
2008-08-05 05:41:56 51°14.432 2°54.967 -999 -999 -999 -999 -999
2008-08-05 05:42:01 51°14.444 2°54.949 -999 -999 -999 -999 -999
2008-08-05 05:42:06 51°14.457 2°54.931 -999 -999 -999 -999 -999
2008-08-05 05:42:11 51°14.47 2°54.913 -999 -999 -999 -999 -999
2008-08-05 05:42:16 51°14.484 2°54.897 -999 -999 -999 -999 -999
2008-08-05 05:42:21 51°14.498 2°54.882 -999 -999 -999 -999 -999
2008-08-05 05:42:26 51°14.513 2°54.868 -999 -999 -999 -999 -999
2008-08-05 05:42:31 51°14.528 2°54.856 -999 -999 -999 -999 -999
2008-08-05 05:42:36 51°14.544 2°54.844 -999 -999 -999 -999 -999
2008-08-05 05:42:41 51°14.559 2°54.833 -999 -999 -999 -999 -999
2008-08-05 05:42:46 51°14.576 2°54.822 -999 -999 -999 -999 -999
2008-08-05 05:42:51 51°14.591 2°54.811 -999 -999 -999 -999 -999
2008-08-05 05:42:56 51°14.607 2°54.799 -999 -999 -999 -999 -999
2008-08-05 05:43:01 51°14.622 2°54.788 -999 -999 -999 -999 -999
2008-08-05 05:43:07 51°14.641 2°54.774 -999 -999 -999 -999 -999
2008-08-05 05:43:12 51°14.657 2°54.762 -999 -999 -999 -999 -999
2008-08-05 05:43:17 51°14.673 2°54.75 -999 -999 -999 -999 -999
2008-08-05 05:43:22 51°14.688 2°54.739 -999 -999 -999 -999 -999
2008-08-05 05:43:27 51°14.705 2°54.728 -999 -999 -999 -999 -999
2008-08-05 05:43:32 51°14.72 2°54.717 -999 -999 -999 -999 -999
2008-08-05 05:43:37 51°14.736 2°54.706 -999 -999 -999 -999 -999
2008-08-05 05:43:42 51°14.752 2°54.696 -999 -999 -999 -999 -999
2008-08-05 05:43:47 51°14.768 2°54.685 -999 -999 -999 -999 -999
2008-08-05 05:43:52 51°14.784 2°54.675 -999 -999 -999 -999 -999
2008-08-05 05:43:57 51°14.8 2°54.666 -999 -999 -999 -999 -999
2008-08-05 05:44:02 51°14.817 2°54.657 -999 -999 -999 -999 -999
2008-08-05 05:44:07 51°14.833 2°54.647 -999 -999 -999 -999 -999
2008-08-05 05:44:12 51°14.849 2°54.638 -999 -999 -999 -999 -999
2008-08-05 05:44:17 51°14.865 2°54.628 -999 -999 -999 -999 -999
2008-08-05 05:44:22 51°14.881 2°54.618 -999 -999 -999 -999 -999
2008-08-05 05:44:27 51°14.898 2°54.608 -999 -999 -999 -999 -999
2008-08-05 05:44:32 51°14.913 2°54.598 -999 -999 -999 -999 -999
2008-08-05 05:44:37 51°14.929 2°54.586 -999 -999 -999 -999 -999
2008-08-05 05:44:42 51°14.945 2°54.575 -999 -999 -999 -999 -999
2008-08-05 05:44:47 51°14.96 2°54.563 -999 -999 -999 -999 -999
2008-08-05 05:44:52 51°14.975 2°54.551 -999 -999 -999 -999 -999
2008-08-05 05:44:57 51°14.991 2°54.539 -999 -999 -999 -999 -999
2008-08-05 05:45:02 51°15.006 2°54.527 -999 -999 -999 -999 -999
2008-08-05 05:45:07 51°15.021 2°54.515 -999 -999 -999 -999 -999
2008-08-05 05:45:12 51°15.036 2°54.502 -999 -999 -999 -999 -999
2008-08-05 05:45:17 51°15.051 2°54.489 -999 -999 -999 -999 -999
2008-08-05 05:45:22 51°15.066 2°54.475 -999 -999 -999 -999 -999
2008-08-05 05:45:27 51°15.081 2°54.462 -999 -999 -999 -999 -999
2008-08-05 05:45:32 51°15.096 2°54.449 -999 -999 -999 -999 -999
2008-08-05 05:45:37 51°15.111 2°54.435 -999 -999 -999 -999 -999
2008-08-05 05:45:42 51°15.126 2°54.422 -999 -999 -999 -999 -999
2008-08-05 05:45:47 51°15.141 2°54.409 -999 -999 -999 -999 -999
2008-08-05 05:45:52 51°15.156 2°54.396 -999 -999 -999 -999 -999
2008-08-05 05:45:57 51°15.172 2°54.382 -999 -999 -999 -999 -999
2008-08-05 05:46:02 51°15.187 2°54.369 -999 -999 -999 -999 -999
2008-08-05 05:46:07 51°15.202 2°54.356 -999 -999 -999 -999 -999
2008-08-05 05:46:12 51°15.217 2°54.342 -999 -999 -999 -999 -999
2008-08-05 05:46:17 51°15.232 2°54.329 -999 -999 -999 -999 -999
2008-08-05 05:46:22 51°15.247 2°54.315 -999 -999 -999 -999 -999
2008-08-05 05:46:27 51°15.261 2°54.301 -999 -999 -999 -999 -999
2008-08-05 05:46:32 51°15.276 2°54.287 -999 -999 -999 -999 -999
2008-08-05 05:46:37 51°15.291 2°54.274 -999 -999 -999 -999 -999
2008-08-05 05:46:42 51°15.306 2°54.26 -999 -999 -999 -999 -999
2008-08-05 05:46:47 51°15.321 2°54.247 -999 -999 -999 -999 -999
2008-08-05 05:46:52 51°15.336 2°54.234 -999 -999 -999 -999 -999
2008-08-05 05:46:57 51°15.351 2°54.22 -999 -999 -999 -999 -999
2008-08-05 05:47:02 51°15.366 2°54.207 -999 -999 -999 -999 -999
2008-08-05 05:47:07 51°15.381 2°54.193 -999 -999 -999 -999 -999
2008-08-05 05:47:12 51°15.396 2°54.179 -999 -999 -999 -999 -999
2008-08-05 05:47:17 51°15.411 2°54.165 -999 -999 -999 -999 -999
2008-08-05 05:47:22 51°15.426 2°54.151 -999 -999 -999 -999 -999
2008-08-05 05:47:27 51°15.441 2°54.138 -999 -999 -999 -999 -999
2008-08-05 05:47:32 51°15.456 2°54.124 -999 -999 -999 -999 -999
2008-08-05 05:47:37 51°15.471 2°54.111 -999 -999 -999 -999 -999
2008-08-05 05:47:42 51°15.486 2°54.097 -999 -999 -999 -999 -999
2008-08-05 05:47:47 51°15.501 2°54.084 -999 -999 -999 -999 -999
2008-08-05 05:47:52 51°15.516 2°54.07 -999 -999 -999 -999 -999
2008-08-05 05:47:57 51°15.531 2°54.056 -999 -999 -999 -999 -999
2008-08-05 05:48:02 51°15.546 2°54.043 -999 -999 -999 -999 -999
2008-08-05 05:48:07 51°15.561 2°54.029 -999 -999 -999 -999 -999
2008-08-05 05:48:12 51°15.576 2°54.015 -999 -999 -999 -999 -999
2008-08-05 05:48:17 51°15.591 2°54.002 -999 -999 -999 -999 -999
2008-08-05 05:48:22 51°15.606 2°53.988 -999 -999 -999 -999 -999
2008-08-05 05:48:27 51°15.621 2°53.974 -999 -999 -999 -999 -999
2008-08-05 05:48:32 51°15.636 2°53.96 -999 -999 -999 -999 -999
2008-08-05 05:48:37 51°15.651 2°53.947 -999 -999 -999 -999 -999
2008-08-05 05:48:42 51°15.666 2°53.933 -999 -999 -999 -999 -999
2008-08-05 05:48:47 51°15.681 2°53.92 -999 -999 -999 -999 -999
2008-08-05 05:48:52 51°15.696 2°53.906 -999 -999 -999 -999 -999
2008-08-05 05:48:57 51°15.71 2°53.892 -999 -999 -999 -999 -999
2008-08-05 05:49:02 51°15.725 2°53.877 -999 -999 -999 -999 -999
2008-08-05 05:49:07 51°15.739 2°53.862 -999 -999 -999 -999 -999
2008-08-05 05:49:12 51°15.754 2°53.848 -999 -999 -999 -999 -999
2008-08-05 05:49:17 51°15.768 2°53.833 -999 -999 -999 -999 -999
2008-08-05 05:49:22 51°15.783 2°53.819 -999 -999 -999 -999 -999
2008-08-05 05:49:27 51°15.798 2°53.805 -999 -999 -999 -999 -999
2008-08-05 05:49:32 51°15.813 2°53.791 -999 -999 -999 -999 -999
2008-08-05 05:49:37 51°15.828 2°53.776 -999 -999 -999 -999 -999
2008-08-05 05:49:42 51°15.842 2°53.762 -999 -999 -999 -999 -999
2008-08-05 05:49:47 51°15.857 2°53.747 -999 -999 -999 -999 -999
2008-08-05 05:49:52 51°15.871 2°53.733 -999 -999 -999 -999 -999
2008-08-05 05:49:57 51°15.886 2°53.718 -999 -999 -999 -999 -999
2008-08-05 05:50:02 51°15.901 2°53.705 -999 -999 -999 -999 -999
2008-08-05 05:50:07 51°15.916 2°53.691 -999 -999 -999 -999 -999
2008-08-05 05:50:12 51°15.931 2°53.678 -999 -999 -999 -999 -999
2008-08-05 05:50:17 51°15.946 2°53.664 -999 -999 -999 -999 -999
2008-08-05 05:50:22 51°15.962 2°53.651 -999 -999 -999 -999 -999
2008-08-05 05:50:27 51°15.977 2°53.637 -999 -999 -999 -999 -999
2008-08-05 05:50:32 51°15.992 2°53.624 -999 -999 -999 -999 -999
2008-08-05 05:50:37 51°16.007 2°53.611 -999 -999 -999 -999 -999
2008-08-05 05:50:42 51°16.022 2°53.597 -999 -999 -999 -999 -999
2008-08-05 05:50:47 51°16.037 2°53.584 -999 -999 -999 -999 -999
2008-08-05 05:50:52 51°16.052 2°53.571 -999 -999 -999 -999 -999
2008-08-05 05:50:57 51°16.068 2°53.557 -999 -999 -999 -999 -999
2008-08-05 05:51:02 51°16.083 2°53.544 -999 -999 -999 -999 -999
2008-08-05 05:51:07 51°16.098 2°53.531 -999 -999 -999 -999 -999
2008-08-05 05:51:12 51°16.113 2°53.517 -999 -999 -999 -999 -999
2008-08-05 05:51:17 51°16.128 2°53.504 -999 -999 -999 -999 -999
2008-08-05 05:51:22 51°16.144 2°53.49 -999 -999 -999 -999 -999
2008-08-05 05:51:27 51°16.159 2°53.477 -999 -999 -999 -999 -999
2008-08-05 05:51:32 51°16.174 2°53.463 -999 -999 -999 -999 -999
2008-08-05 05:51:37 51°16.189 2°53.45 -999 -999 -999 -999 -999
2008-08-05 05:51:42 51°16.205 2°53.437 -999 -999 -999 -999 -999
2008-08-05 05:51:47 51°16.22 2°53.424 -999 -999 -999 -999 -999
2008-08-05 05:51:52 51°16.235 2°53.41 -999 -999 -999 -999 -999
2008-08-05 05:51:57 51°16.25 2°53.397 -999 -999 -999 -999 -999
2008-08-05 05:52:02 51°16.265 2°53.383 -999 -999 -999 -999 -999
2008-08-05 05:52:07 51°16.28 2°53.369 -999 -999 -999 -999 -999
2008-08-05 05:52:12 51°16.295 2°53.355 -999 -999 -999 -999 -999
2008-08-05 05:52:17 51°16.31 2°53.341 -999 -999 -999 -999 -999
2008-08-05 05:52:22 51°16.325 2°53.327 -999 -999 -999 -999 -999
2008-08-05 05:52:27 51°16.34 2°53.313 -999 -999 -999 -999 -999
2008-08-05 05:52:32 51°16.355 2°53.298 -999 -999 -999 -999 -999
2008-08-05 05:52:37 51°16.37 2°53.284 -999 -999 -999 -999 -999
2008-08-05 05:52:42 51°16.385 2°53.27 -999 -999 -999 -999 -999
2008-08-05 05:52:47 51°16.4 2°53.256 -999 -999 -999 -999 -999
2008-08-05 05:52:52 51°16.414 2°53.241 -999 -999 -999 -999 -999
2008-08-05 05:52:57 51°16.429 2°53.227 -999 -999 -999 -999 -999
2008-08-05 05:53:02 51°16.444 2°53.213 -999 -999 -999 -999 -999
2008-08-05 05:53:07 51°16.459 2°53.199 -999 -999 -999 -999 -999
2008-08-05 05:53:12 51°16.473 2°53.184 -999 -999 -999 -999 -999
2008-08-05 05:53:17 51°16.488 2°53.17 -999 -999 -999 -999 -999
2008-08-05 05:53:22 51°16.503 2°53.156 -999 -999 -999 -999 -999
2008-08-05 05:53:27 51°16.518 2°53.141 -999 -999 -999 -999 -999
2008-08-05 05:53:32 51°16.533 2°53.127 -999 -999 -999 -999 -999
2008-08-05 05:53:37 51°16.548 2°53.113 -999 -999 -999 -999 -999
2008-08-05 05:53:42 51°16.562 2°53.099 -999 -999 -999 -999 -999
2008-08-05 05:53:47 51°16.577 2°53.085 -999 -999 -999 -999 -999
2008-08-05 05:53:52 51°16.593 2°53.071 -999 -999 -999 -999 -999
2008-08-05 05:53:57 51°16.608 2°53.057 -999 -999 -999 -999 -999
2008-08-05 05:54:02 51°16.622 2°53.043 -999 -999 -999 -999 -999
2008-08-05 05:54:07 51°16.637 2°53.029 -999 -999 -999 -999 -999
2008-08-05 05:54:12 51°16.652 2°53.015 -999 -999 -999 -999 -999
2008-08-05 05:54:17 51°16.667 2°53.001 -999 -999 -999 -999 -999
2008-08-05 05:54:22 51°16.682 2°52.987 -999 -999 -999 -999 -999
2008-08-05 05:54:27 51°16.697 2°52.973 -999 -999 -999 -999 -999
2008-08-05 05:54:32 51°16.712 2°52.959 -999 -999 -999 -999 -999
2008-08-05 05:54:37 51°16.727 2°52.945 -999 -999 -999 -999 -999
2008-08-05 05:54:42 51°16.742 2°52.932 -999 -999 -999 -999 -999
2008-08-05 05:54:47 51°16.757 2°52.918 -999 -999 -999 -999 -999
2008-08-05 05:54:52 51°16.772 2°52.905 -999 -999 -999 -999 -999
2008-08-05 05:54:57 51°16.788 2°52.892 -999 -999 -999 -999 -999
2008-08-05 05:55:02 51°16.803 2°52.88 -999 -999 -999 -999 -999
2008-08-05 05:55:07 51°16.818 2°52.867 -999 -999 -999 -999 -999
2008-08-05 05:55:12 51°16.833 2°52.854 -999 -999 -999 -999 -999
2008-08-05 05:55:17 51°16.849 2°52.841 -999 -999 -999 -999 -999
2008-08-05 05:55:22 51°16.864 2°52.828 -999 -999 -999 -999 -999
2008-08-05 05:55:27 51°16.88 2°52.815 -999 -999 -999 -999 -999
2008-08-05 05:55:32 51°16.895 2°52.802 -999 -999 -999 -999 -999
2008-08-05 05:55:37 51°16.91 2°52.789 -999 -999 -999 -999 -999
2008-08-05 05:55:42 51°16.926 2°52.777 -999 -999 -999 -999 -999
2008-08-05 05:55:47 51°16.941 2°52.765 -999 -999 -999 -999 -999
2008-08-05 05:55:52 51°16.957 2°52.753 -999 -999 -999 -999 -999
2008-08-05 05:55:57 51°16.974 2°52.743 -999 -999 -999 -999 -999
2008-08-05 05:56:02 51°16.99 2°52.733 -999 -999 -999 -999 -999
2008-08-05 05:56:07 51°17.007 2°52.725 -999 -999 -999 -999 -999
2008-08-05 05:56:12 51°17.023 2°52.717 -999 -999 -999 -999 -999
2008-08-05 05:56:17 51°17.04 2°52.71 -999 -999 -999 -999 -999
2008-08-05 05:56:22 51°17.057 2°52.703 -999 -999 -999 -999 -999
2008-08-05 05:56:27 51°17.074 2°52.697 -999 -999 -999 -999 -999
2008-08-05 05:56:32 51°17.091 2°52.691 -999 -999 -999 -999 -999
2008-08-05 05:56:37 51°17.108 2°52.686 -999 -999 -999 -999 -999
2008-08-05 05:56:42 51°17.125 2°52.68 -999 -999 -999 -999 -999
2008-08-05 05:56:47 51°17.142 2°52.674 -999 -999 -999 -999 -999
2008-08-05 05:56:52 51°17.16 2°52.67 -999 -999 -999 -999 -999
2008-08-05 05:56:57 51°17.177 2°52.666 -999 -999 -999 -999 -999
2008-08-05 05:57:02 51°17.194 2°52.664 -999 -999 -999 -999 -999
2008-08-05 05:57:07 51°17.212 2°52.661 -999 -999 -999 -999 -999
2008-08-05 05:57:12 51°17.23 2°52.661 -999 -999 -999 -999 -999
2008-08-05 05:57:17 51°17.247 2°52.658 -999 -999 -999 -999 -999
2008-08-05 05:57:22 51°17.265 2°52.658 -999 -999 -999 -999 -999
2008-08-05 05:57:27 51°17.282 2°52.658 -999 -999 -999 -999 -999
2008-08-05 05:57:32 51°17.3 2°52.657 -999 -999 -999 -999 -999
2008-08-05 05:57:37 51°17.318 2°52.657 -999 -999 -999 -999 -999
2008-08-05 05:57:42 51°17.335 2°52.656 -999 -999 -999 -999 -999
2008-08-05 05:57:47 51°17.353 2°52.656 -999 -999 -999 -999 -999
2008-08-05 05:57:52 51°17.371 2°52.655 -999 -999 -999 -999 -999
2008-08-05 05:57:57 51°17.389 2°52.654 -999 -999 -999 -999 -999
2008-08-05 05:58:02 51°17.406 2°52.653 -999 -999 -999 -999 -999
2008-08-05 05:58:07 51°17.424 2°52.652 -999 -999 -999 -999 -999
2008-08-05 05:58:12 51°17.442 2°52.65 -999 -999 -999 -999 -999
2008-08-05 05:58:17 51°17.46 2°52.651 -999 -999 -999 -999 -999
2008-08-05 05:58:22 51°17.477 2°52.649 -999 -999 -999 -999 -999
2008-08-05 05:58:27 51°17.495 2°52.649 -999 -999 -999 -999 -999
2008-08-05 05:58:32 51°17.512 2°52.647 -999 -999 -999 -999 -999
2008-08-05 05:58:37 51°17.53 2°52.647 -999 -999 -999 -999 -999
2008-08-05 05:58:42 51°17.547 2°52.646 -999 -999 -999 -999 -999
2008-08-05 05:58:47 51°17.565 2°52.644 -999 -999 -999 -999 -999
2008-08-05 05:58:52 51°17.583 2°52.643 -999 -999 -999 -999 -999
2008-08-05 05:58:57 51°17.6 2°52.641 -999 -999 -999 -999 -999
2008-08-05 05:59:02 51°17.618 2°52.641 -999 -999 -999 -999 -999
2008-08-05 05:59:07 51°17.635 2°52.641 -999 -999 -999 -999 -999
2008-08-05 05:59:12 51°17.653 2°52.641 -999 -999 -999 -999 -999
2008-08-05 05:59:17 51°17.67 2°52.645 -999 -999 -999 -999 -999
2008-08-05 05:59:22 51°17.688 2°52.648 -999 -999 -999 -999 -999
2008-08-05 05:59:27 51°17.705 2°52.653 -999 -999 -999 -999 -999
2008-08-05 05:59:32 51°17.722 2°52.658 -999 -999 -999 -999 -999
2008-08-05 05:59:37 51°17.739 2°52.663 -999 -999 -999 -999 -999
2008-08-05 05:59:42 51°17.757 2°52.669 -999 -999 -999 -999 -999
2008-08-05 05:59:47 51°17.774 2°52.674 -999 -999 -999 -999 -999
2008-08-05 05:59:52 51°17.791 2°52.682 -999 -999 -999 -999 -999
2008-08-05 05:59:57 51°17.808 2°52.686 -999 -999 -999 -999 -999
2008-08-05 06:00:02 51°17.825 2°52.694 -999 -999 -999 -999 -999
2008-08-05 06:00:07 51°17.842 2°52.699 -999 -999 -999 -999 -999
2008-08-05 06:00:12 51°17.859 2°52.707 -999 -999 -999 -999 -999
2008-08-05 06:00:17 51°17.876 2°52.713 -999 -999 -999 -999 -999
2008-08-05 06:00:22 51°17.894 2°52.718 -999 -999 -999 -999 -999
2008-08-05 06:00:27 51°17.91 2°52.726 -999 -999 -999 -999 -999
2008-08-05 06:00:32 51°17.928 2°52.73 -999 -999 -999 -999 -999
2008-08-05 06:00:37 51°17.945 2°52.737 -999 -999 -999 -999 -999
2008-08-05 06:00:42 51°17.962 2°52.741 -999 -999 -999 -999 -999
2008-08-05 06:00:47 51°17.979 2°52.747 -999 -999 -999 -999 -999
2008-08-05 06:00:52 51°17.997 2°52.752 -999 -999 -999 -999 -999
2008-08-05 06:00:57 51°18.014 2°52.757 -999 -999 -999 -999 -999
2008-08-05 06:01:02 51°18.031 2°52.762 -999 -999 -999 -999 -999
2008-08-05 06:01:07 51°18.048 2°52.767 -999 -999 -999 -999 -999
2008-08-05 06:01:12 51°18.066 2°52.771 -999 -999 -999 -999 -999
2008-08-05 06:01:17 51°18.083 2°52.776 -999 -999 -999 -999 -999
2008-08-05 06:01:22 51°18.101 2°52.781 -999 -999 -999 -999 -999
2008-08-05 06:01:27 51°18.118 2°52.785 -999 -999 -999 -999 -999
2008-08-05 06:01:32 51°18.135 2°52.791 -999 -999 -999 -999 -999
2008-08-05 06:01:37 51°18.153 2°52.795 -999 -999 -999 -999 -999
2008-08-05 06:01:42 51°18.17 2°52.8 -999 -999 -999 -999 -999
2008-08-05 06:01:47 51°18.187 2°52.805 -999 -999 -999 -999 -999
2008-08-05 06:01:52 51°18.205 2°52.809 -999 -999 -999 -999 -999
2008-08-05 06:01:57 51°18.222 2°52.812 -999 -999 -999 -999 -999
2008-08-05 06:02:02 51°18.239 2°52.816 -999 -999 -999 -999 -999
2008-08-05 06:02:07 51°18.257 2°52.82 -999 -999 -999 -999 -999
2008-08-05 06:02:12 51°18.274 2°52.824 -999 -999 -999 -999 -999
2008-08-05 06:02:17 51°18.292 2°52.827 -999 -999 -999 -999 -999
2008-08-05 06:02:22 51°18.309 2°52.83 -999 -999 -999 -999 -999
2008-08-05 06:02:27 51°18.326 2°52.834 -999 -999 -999 -999 -999
2008-08-05 06:02:32 51°18.344 2°52.838 -999 -999 -999 -999 -999
2008-08-05 06:02:37 51°18.361 2°52.842 -999 -999 -999 -999 -999
2008-08-05 06:02:42 51°18.379 2°52.847 -999 -999 -999 -999 -999
2008-08-05 06:02:47 51°18.396 2°52.849 -999 -999 -999 -999 -999
2008-08-05 06:02:52 51°18.414 2°52.855 -999 -999 -999 -999 -999
2008-08-05 06:02:57 51°18.431 2°52.857 -999 -999 -999 -999 -999
2008-08-05 06:03:02 51°18.448 2°52.862 -999 -999 -999 -999 -999
2008-08-05 06:03:07 51°18.466 2°52.865 -999 -999 -999 -999 -999
2008-08-05 06:03:12 51°18.483 2°52.87 -999 -999 -999 -999 -999
2008-08-05 06:03:17 51°18.501 2°52.874 -999 -999 -999 -999 -999
2008-08-05 06:03:22 51°18.518 2°52.88 -999 -999 -999 -999 -999
2008-08-05 06:03:27 51°18.535 2°52.886 -999 -999 -999 -999 -999
2008-08-05 06:03:32 51°18.551 2°52.896 -999 -999 -999 -999 -999
2008-08-05 06:03:37 51°18.567 2°52.905 -999 -999 -999 -999 -999
2008-08-05 06:03:42 51°18.583 2°52.918 -999 -999 -999 -999 -999
2008-08-05 06:03:47 51°18.598 2°52.932 -999 -999 -999 -999 -999
2008-08-05 06:03:52 51°18.613 2°52.946 -999 -999 -999 -999 -999
2008-08-05 06:03:57 51°18.627 2°52.962 -999 -999 -999 -999 -999
2008-08-05 06:04:02 51°18.642 2°52.977 -999 -999 -999 -999 -999
2008-08-05 06:04:07 51°18.655 2°52.995 -999 -999 -999 -999 -999
2008-08-05 06:04:12 51°18.669 2°53.011 -999 -999 -999 -999 -999
2008-08-05 06:04:17 51°18.682 2°53.03 -999 -999 -999 -999 -999
2008-08-05 06:04:22 51°18.695 2°53.048 -999 -999 -999 -999 -999
2008-08-05 06:04:27 51°18.706 2°53.069 -999 -999 -999 -999 -999
2008-08-05 06:04:32 51°18.718 2°53.088 -999 -999 -999 -999 -999
2008-08-05 06:04:37 51°18.729 2°53.11 -999 -999 -999 -999 -999
2008-08-05 06:04:42 51°18.74 2°53.13 -999 -999 -999 -999 -999
2008-08-05 06:04:47 51°18.75 2°53.153 -999 -999 -999 -999 -999
2008-08-05 06:04:52 51°18.762 2°53.173 -999 -999 -999 -999 -999
2008-08-05 06:04:57 51°18.771 2°53.197 -999 -999 -999 -999 -999
2008-08-05 06:05:02 51°18.783 2°53.217 -999 -999 -999 -999 -999
2008-08-05 06:05:07 51°18.792 2°53.24 -999 -999 -999 -999 -999
2008-08-05 06:05:12 51°18.803 2°53.261 -999 -999 -999 -999 -999
2008-08-05 06:05:17 51°18.813 2°53.284 -999 -999 -999 -999 -999
2008-08-05 06:05:22 51°18.824 2°53.305 -999 -999 -999 -999 -999
2008-08-05 06:05:27 51°18.834 2°53.327 -999 -999 -999 -999 -999
2008-08-05 06:05:32 51°18.844 2°53.348 -999 -999 -999 -999 -999
2008-08-05 06:05:37 51°18.854 2°53.37 -999 -999 -999 -999 -999
2008-08-05 06:05:42 51°18.864 2°53.393 -999 -999 -999 -999 -999
2008-08-05 06:05:47 51°18.875 2°53.414 -999 -999 -999 -999 -999
2008-08-05 06:05:52 51°18.885 2°53.437 -999 -999 -999 -999 -999
2008-08-05 06:05:57 51°18.896 2°53.457 -999 -999 -999 -999 -999
2008-08-05 06:06:02 51°18.906 2°53.48 -999 -999 -999 -999 -999
2008-08-05 06:06:07 51°18.917 2°53.501 -999 -999 -999 -999 -999
2008-08-05 06:06:12 51°18.927 2°53.523 -999 -999 -999 -999 -999
2008-08-05 06:06:17 51°18.938 2°53.544 -999 -999 -999 -999 -999
2008-08-05 06:06:22 51°18.948 2°53.567 -999 -999 -999 -999 -999
2008-08-05 06:06:27 51°18.958 2°53.589 -999 -999 -999 -999 -999
2008-08-05 06:06:32 51°18.969 2°53.611 -999 -999 -999 -999 -999
2008-08-05 06:06:37 51°18.979 2°53.633 -999 -999 -999 -999 -999
2008-08-05 06:06:42 51°18.989 2°53.655 -999 -999 -999 -999 -999
2008-08-05 06:06:47 51°19 2°53.677 -999 -999 -999 -999 -999
2008-08-05 06:06:52 51°19.011 2°53.697 -999 -999 -999 -999 -999
2008-08-05 06:06:57 51°19.021 2°53.72 -999 -999 -999 -999 -999
2008-08-05 06:07:02 51°19.032 2°53.741 -999 -999 -999 -999 -999
2008-08-05 06:07:07 51°19.042 2°53.763 -999 -999 -999 -999 -999
2008-08-05 06:07:12 51°19.053 2°53.784 -999 -999 -999 -999 -999
2008-08-05 06:07:17 51°19.063 2°53.806 -999 -999 -999 -999 -999
2008-08-05 06:07:22 51°19.074 2°53.828 -999 -999 -999 -999 -999
2008-08-05 06:07:27 51°19.085 2°53.85 -999 -999 -999 -999 -999
2008-08-05 06:07:32 51°19.095 2°53.872 -999 -999 -999 -999 -999
2008-08-05 06:07:37 51°19.106 2°53.893 -999 -999 -999 -999 -999
2008-08-05 06:07:42 51°19.116 2°53.915 -999 -999 -999 -999 -999
2008-08-05 06:07:47 51°19.127 2°53.937 -999 -999 -999 -999 -999
2008-08-05 06:07:52 51°19.138 2°53.958 -999 -999 -999 -999 -999
2008-08-05 06:07:57 51°19.148 2°53.98 -999 -999 -999 -999 -999
2008-08-05 06:08:02 51°19.159 2°54.001 -999 -999 -999 -999 -999
2008-08-05 06:08:07 51°19.169 2°54.023 -999 -999 -999 -999 -999
2008-08-05 06:08:12 51°19.18 2°54.045 -999 -999 -999 -999 -999
2008-08-05 06:08:17 51°19.19 2°54.066 -999 -999 -999 -999 -999
2008-08-05 06:08:22 51°19.201 2°54.087 -999 -999 -999 -999 -999
2008-08-05 06:08:27 51°19.211 2°54.109 -999 -999 -999 -999 -999
2008-08-05 06:08:32 51°19.222 2°54.13 -999 -999 -999 -999 -999
2008-08-05 06:08:37 51°19.233 2°54.151 -999 -999 -999 -999 -999
2008-08-05 06:08:42 51°19.245 2°54.173 -999 -999 -999 -999 -999
2008-08-05 06:08:47 51°19.256 2°54.194 -999 -999 -999 -999 -999
2008-08-05 06:08:52 51°19.267 2°54.215 -999 -999 -999 -999 -999
2008-08-05 06:08:57 51°19.278 2°54.237 -999 -999 -999 -999 -999
2008-08-05 06:09:02 51°19.288 2°54.259 -999 -999 -999 -999 -999
2008-08-05 06:09:07 51°19.299 2°54.28 -999 -999 -999 -999 -999
2008-08-05 06:09:12 51°19.31 2°54.301 -999 -999 -999 -999 -999
2008-08-05 06:09:17 51°19.321 2°54.323 -999 -999 -999 -999 -999
2008-08-05 06:09:22 51°19.332 2°54.344 -999 -999 -999 -999 -999
2008-08-05 06:09:27 51°19.342 2°54.366 -999 -999 -999 -999 -999
2008-08-05 06:09:32 51°19.353 2°54.387 -999 -999 -999 -999 -999
2008-08-05 06:09:37 51°19.365 2°54.408 -999 -999 -999 -999 -999
2008-08-05 06:09:42 51°19.375 2°54.429 -999 -999 -999 -999 -999
2008-08-05 06:09:47 51°19.387 2°54.45 -999 -999 -999 -999 -999
2008-08-05 06:09:52 51°19.398 2°54.471 -999 -999 -999 -999 -999
2008-08-05 06:09:57 51°19.409 2°54.492 -999 -999 -999 -999 -999
2008-08-05 06:10:02 51°19.42 2°54.513 -999 -999 -999 -999 -999
2008-08-05 06:10:07 51°19.43 2°54.534 -999 -999 -999 -999 -999
2008-08-05 06:10:12 51°19.441 2°54.555 -999 -999 -999 -999 -999
2008-08-05 06:10:17 51°19.452 2°54.577 -999 -999 -999 -999 -999
2008-08-05 06:10:22 51°19.463 2°54.598 -999 -999 -999 -999 -999
2008-08-05 06:10:27 51°19.473 2°54.619 -999 -999 -999 -999 -999
2008-08-05 06:10:32 51°19.484 2°54.64 -999 -999 -999 -999 -999
2008-08-05 06:10:37 51°19.495 2°54.662 -999 -999 -999 -999 -999
2008-08-05 06:10:42 51°19.506 2°54.683 -999 -999 -999 -999 -999
2008-08-05 06:10:47 51°19.516 2°54.705 -999 -999 -999 -999 -999
2008-08-05 06:10:52 51°19.528 2°54.725 -999 -999 -999 -999 -999
2008-08-05 06:10:57 51°19.539 2°54.746 -999 -999 -999 -999 -999
2008-08-05 06:11:02 51°19.55 2°54.767 -999 -999 -999 -999 -999
2008-08-05 06:11:07 51°19.562 2°54.787 -999 -999 -999 -999 -999
2008-08-05 06:11:12 51°19.573 2°54.808 -999 -999 -999 -999 -999
2008-08-05 06:11:17 51°19.584 2°54.829 -999 -999 -999 -999 -999
2008-08-05 06:11:22 51°19.596 2°54.849 -999 -999 -999 -999 -999
2008-08-05 06:11:27 51°19.607 2°54.871 -999 -999 -999 -999 -999
2008-08-05 06:11:32 51°19.619 2°54.89 -999 -999 -999 -999 -999
2008-08-05 06:11:37 51°19.629 2°54.913 -999 -999 -999 -999 -999
2008-08-05 06:11:42 51°19.641 2°54.933 -999 -999 -999 -999 -999
2008-08-05 06:11:47 51°19.651 2°54.955 -999 -999 -999 -999 -999
2008-08-05 06:11:52 51°19.662 2°54.976 -999 -999 -999 -999 -999
2008-08-05 06:11:57 51°19.672 2°54.998 -999 -999 -999 -999 -999
2008-08-05 06:12:02 51°19.683 2°55.019 -999 -999 -999 -999 -999
2008-08-05 06:12:07 51°19.693 2°55.042 -999 -999 -999 -999 -999
2008-08-05 06:12:12 51°19.704 2°55.063 -999 -999 -999 -999 -999
2008-08-05 06:12:17 51°19.714 2°55.085 -999 -999 -999 -999 -999
2008-08-05 06:12:22 51°19.725 2°55.107 -999 -999 -999 -999 -999
2008-08-05 06:12:27 51°19.735 2°55.128 -999 -999 -999 -999 -999
2008-08-05 06:12:32 51°19.746 2°55.15 -999 -999 -999 -999 -999
2008-08-05 06:12:37 51°19.757 2°55.17 -999 -999 -999 -999 -999
2008-08-05 06:12:42 51°19.768 2°55.191 -999 -999 -999 -999 -999
2008-08-05 06:12:47 51°19.779 2°55.211 -999 -999 -999 -999 -999
2008-08-05 06:12:52 51°19.79 2°55.232 -999 -999 -999 -999 -999
2008-08-05 06:12:57 51°19.801 2°55.253 -999 -999 -999 -999 -999
2008-08-05 06:13:02 51°19.812 2°55.274 -999 -999 -999 -999 -999
2008-08-05 06:13:07 51°19.822 2°55.295 -999 -999 -999 -999 -999
2008-08-05 06:13:12 51°19.833 2°55.317 -999 -999 -999 -999 -999
2008-08-05 06:13:17 51°19.844 2°55.339 -999 -999 -999 -999 -999
2008-08-05 06:13:22 51°19.854 2°55.361 -999 -999 -999 -999 -999
2008-08-05 06:13:27 51°19.865 2°55.383 -999 -999 -999 -999 -999
2008-08-05 06:13:32 51°19.876 2°55.404 -999 -999 -999 -999 -999
2008-08-05 06:13:37 51°19.886 2°55.426 -999 -999 -999 -999 -999
2008-08-05 06:13:42 51°19.897 2°55.447 -999 -999 -999 -999 -999
2008-08-05 06:13:47 51°19.908 2°55.469 -999 -999 -999 -999 -999
2008-08-05 06:13:52 51°19.918 2°55.491 -999 -999 -999 -999 -999
2008-08-05 06:13:57 51°19.929 2°55.511 -999 -999 -999 -999 -999
2008-08-05 06:14:02 51°19.939 2°55.534 -999 -999 -999 -999 -999
2008-08-05 06:14:07 51°19.95 2°55.555 -999 -999 -999 -999 -999
2008-08-05 06:14:12 51°19.961 2°55.577 -999 -999 -999 -999 -999
2008-08-05 06:14:17 51°19.971 2°55.599 -999 -999 -999 -999 -999
2008-08-05 06:14:22 51°19.982 2°55.62 -999 -999 -999 -999 -999
2008-08-05 06:14:27 51°19.992 2°55.642 -999 -999 -999 -999 -999
2008-08-05 06:14:32 51°20.002 2°55.664 -999 -999 -999 -999 -999
2008-08-05 06:14:37 51°20.013 2°55.685 -999 -999 -999 -999 -999
2008-08-05 06:14:42 51°20.023 2°55.707 -999 -999 -999 -999 -999
2008-08-05 06:14:47 51°20.033 2°55.729 -999 -999 -999 -999 -999
2008-08-05 06:14:52 51°20.044 2°55.75 -999 -999 -999 -999 -999
2008-08-05 06:14:57 51°20.054 2°55.772 -999 -999 -999 -999 -999
2008-08-05 06:15:02 51°20.064 2°55.793 -999 -999 -999 -999 -999
2008-08-05 06:15:07 51°20.075 2°55.815 -999 -999 -999 -999 -999
2008-08-05 06:15:12 51°20.086 2°55.836 -999 -999 -999 -999 -999
2008-08-05 06:15:17 51°20.096 2°55.857 -999 -999 -999 -999 -999
2008-08-05 06:15:22 51°20.107 2°55.878 -999 -999 -999 -999 -999
2008-08-05 06:15:27 51°20.117 2°55.9 -999 -999 -999 -999 -999
2008-08-05 06:15:32 51°20.127 2°55.922 -999 -999 -999 -999 -999
2008-08-05 06:15:37 51°20.138 2°55.943 -999 -999 -999 -999 -999
2008-08-05 06:15:42 51°20.147 2°55.965 -999 -999 -999 -999 -999
2008-08-05 06:15:47 51°20.158 2°55.986 -999 -999 -999 -999 -999
2008-08-05 06:15:52 51°20.169 2°56.007 -999 -999 -999 -999 -999
2008-08-05 06:15:57 51°20.178 2°56.028 -999 -999 -999 -999 -999
2008-08-05 06:16:02 51°20.189 2°56.05 -999 -999 -999 -999 -999
2008-08-05 06:16:07 51°20.201 2°56.07 -999 -999 -999 -999 -999
2008-08-05 06:16:12 51°20.211 2°56.092 -999 -999 -999 -999 -999
2008-08-05 06:16:17 51°20.222 2°56.112 -999 -999 -999 -999 -999
2008-08-05 06:16:22 51°20.233 2°56.133 -999 -999 -999 -999 -999
2008-08-05 06:16:27 51°20.244 2°56.153 -999 -999 -999 -999 -999
2008-08-05 06:16:32 51°20.255 2°56.174 -999 -999 -999 -999 -999
2008-08-05 06:16:37 51°20.266 2°56.195 -999 -999 -999 -999 -999
2008-08-05 06:16:42 51°20.277 2°56.215 -999 -999 -999 -999 -999
2008-08-05 06:16:47 51°20.288 2°56.235 -999 -999 -999 -999 -999
2008-08-05 06:16:52 51°20.299 2°56.256 -999 -999 -999 -999 -999
2008-08-05 06:16:57 51°20.311 2°56.275 -999 -999 -999 -999 -999
2008-08-05 06:17:02 51°20.321 2°56.296 -999 -999 -999 -999 -999
2008-08-05 06:17:07 51°20.333 2°56.316 -999 -999 -999 -999 -999
2008-08-05 06:17:12 51°20.344 2°56.337 -999 -999 -999 -999 -999
2008-08-05 06:17:17 51°20.355 2°56.358 -999 -999 -999 -999 -999
2008-08-05 06:17:22 51°20.367 2°56.378 -999 -999 -999 -999 -999
2008-08-05 06:17:27 51°20.376 2°56.4 -999 -999 -999 -999 -999
2008-08-05 06:17:32 51°20.388 2°56.421 -999 -999 -999 -999 -999
2008-08-05 06:17:37 51°20.398 2°56.442 -999 -999 -999 -999 -999
2008-08-05 06:17:42 51°20.408 2°56.464 -999 -999 -999 -999 -999
2008-08-05 06:17:47 51°20.419 2°56.485 -999 -999 -999 -999 -999
2008-08-05 06:17:52 51°20.428 2°56.507 -999 -999 -999 -999 -999
2008-08-05 06:17:57 51°20.44 2°56.527 -999 -999 -999 -999 -999
2008-08-05 06:18:02 51°20.45 2°56.549 -999 -999 -999 -999 -999
2008-08-05 06:18:07 51°20.46 2°56.571 -999 -999 -999 -999 -999
2008-08-05 06:18:12 51°20.471 2°56.592 -999 -999 -999 -999 -999
2008-08-05 06:18:17 51°20.479 2°56.615 -999 -999 -999 -999 -999
2008-08-05 06:18:22 51°20.49 2°56.636 -999 -999 -999 -999 -999
2008-08-05 06:18:27 51°20.499 2°56.66 -999 -999 -999 -999 -999
2008-08-05 06:18:32 51°20.51 2°56.681 -999 -999 -999 -999 -999
2008-08-05 06:18:37 51°20.519 2°56.704 -999 -999 -999 -999 -999
2008-08-05 06:18:42 51°20.528 2°56.726 -999 -999 -999 -999 -999
2008-08-05 06:18:47 51°20.539 2°56.748 -999 -999 -999 -999 -999
2008-08-05 06:18:52 51°20.548 2°56.771 -999 -999 -999 -999 -999
2008-08-05 06:18:57 51°20.558 2°56.792 -999 -999 -999 -999 -999
2008-08-05 06:19:02 51°20.568 2°56.815 -999 -999 -999 -999 -999
2008-08-05 06:19:07 51°20.578 2°56.836 -999 -999 -999 -999 -999
2008-08-05 06:19:12 51°20.588 2°56.859 -999 -999 -999 -999 -999
2008-08-05 06:19:17 51°20.599 2°56.879 -999 -999 -999 -999 -999
2008-08-05 06:19:22 51°20.609 2°56.901 -999 -999 -999 -999 -999
2008-08-05 06:19:27 51°20.62 2°56.922 -999 -999 -999 -999 -999
2008-08-05 06:19:32 51°20.631 2°56.943 -999 -999 -999 -999 -999
2008-08-05 06:19:37 51°20.641 2°56.965 -999 -999 -999 -999 -999
2008-08-05 06:19:42 51°20.652 2°56.986 -999 -999 -999 -999 -999
2008-08-05 06:19:47 51°20.662 2°57.008 -999 -999 -999 -999 -999
2008-08-05 06:19:52 51°20.673 2°57.029 -999 -999 -999 -999 -999
2008-08-05 06:19:57 51°20.682 2°57.051 -999 -999 -999 -999 -999
2008-08-05 06:20:02 51°20.693 2°57.072 -999 -999 -999 -999 -999
2008-08-05 06:20:07 51°20.703 2°57.094 -999 -999 -999 -999 -999
2008-08-05 06:20:12 51°20.713 2°57.115 -999 -999 -999 -999 -999
2008-08-05 06:20:17 51°20.724 2°57.137 -999 -999 -999 -999 -999
2008-08-05 06:20:22 51°20.734 2°57.159 -999 -999 -999 -999 -999
2008-08-05 06:20:27 51°20.745 2°57.18 -999 -999 -999 -999 -999
2008-08-05 06:20:32 51°20.755 2°57.2 -999 -999 -999 -999 -999
2008-08-05 06:20:37 51°20.765 2°57.222 -999 -999 -999 -999 -999
2008-08-05 06:20:42 51°20.777 2°57.242 -999 -999 -999 -999 -999
2008-08-05 06:20:47 51°20.787 2°57.264 -999 -999 -999 -999 -999
2008-08-05 06:20:52 51°20.798 2°57.284 -999 -999 -999 -999 -999
2008-08-05 06:20:57 51°20.808 2°57.306 -999 -999 -999 -999 -999
2008-08-05 06:21:02 51°20.819 2°57.327 -999 -999 -999 -999 -999
2008-08-05 06:21:07 51°20.829 2°57.348 -999 -999 -999 -999 -999
2008-08-05 06:21:12 51°20.839 2°57.37 -999 -999 -999 -999 -999
2008-08-05 06:21:17 51°20.85 2°57.391 -999 -999 -999 -999 -999
2008-08-05 06:21:22 51°20.86 2°57.413 -999 -999 -999 -999 -999
2008-08-05 06:21:27 51°20.871 2°57.433 -999 -999 -999 -999 -999
2008-08-05 06:21:32 51°20.881 2°57.455 -999 -999 -999 -999 -999
2008-08-05 06:21:37 51°20.892 2°57.475 -999 -999 -999 -999 -999
2008-08-05 06:21:42 51°20.903 2°57.497 -999 -999 -999 -999 -999
2008-08-05 06:21:47 51°20.913 2°57.518 -999 -999 -999 -999 -999
2008-08-05 06:21:52 51°20.924 2°57.538 -999 -999 -999 -999 -999
2008-08-05 06:21:57 51°20.934 2°57.56 -999 -999 -999 -999 -999
2008-08-05 06:22:02 51°20.945 2°57.58 -999 -999 -999 -999 -999
2008-08-05 06:22:07 51°20.956 2°57.601 -999 -999 -999 -999 -999
2008-08-05 06:22:12 51°20.967 2°57.621 -999 -999 -999 -999 -999
2008-08-05 06:22:17 51°20.977 2°57.643 -999 -999 -999 -999 -999
2008-08-05 06:22:22 51°20.989 2°57.664 -999 -999 -999 -999 -999
2008-08-05 06:22:27 51°20.998 2°57.686 -999 -999 -999 -999 -999
2008-08-05 06:22:32 51°21.009 2°57.707 -999 -999 -999 -999 -999
2008-08-05 06:22:37 51°21.02 2°57.728 -999 -999 -999 -999 -999
2008-08-05 06:22:42 51°21.029 2°57.751 -999 -999 -999 -999 -999
2008-08-05 06:22:47 51°21.041 2°57.77 -999 -999 -999 -999 -999
2008-08-05 06:22:52 51°21.05 2°57.793 -999 -999 -999 -999 -999
2008-08-05 06:22:57 51°21.061 2°57.813 -999 -999 -999 -999 -999
2008-08-05 06:23:02 51°21.071 2°57.835 -999 -999 -999 -999 -999
2008-08-05 06:23:07 51°21.082 2°57.857 -999 -999 -999 -999 -999
2008-08-05 06:23:12 51°21.093 2°57.878 -999 -999 -999 -999 -999
2008-08-05 06:23:17 51°21.103 2°57.899 -999 -999 -999 -999 -999
2008-08-05 06:23:22 51°21.114 2°57.92 -999 -999 -999 -999 -999
2008-08-05 06:23:27 51°21.124 2°57.941 -999 -999 -999 -999 -999
2008-08-05 06:23:32 51°21.135 2°57.962 -999 -999 -999 -999 -999
2008-08-05 06:23:37 51°21.146 2°57.982 -999 -999 -999 -999 -999
2008-08-05 06:23:42 51°21.156 2°58.004 -999 -999 -999 -999 -999
2008-08-05 06:23:47 51°21.168 2°58.023 -999 -999 -999 -999 -999
2008-08-05 06:23:52 51°21.177 2°58.046 -999 -999 -999 -999 -999
2008-08-05 06:23:57 51°21.189 2°58.065 -999 -999 -999 -999 -999
2008-08-05 06:24:02 51°21.2 2°58.086 -999 -999 -999 -999 -999
2008-08-05 06:24:07 51°21.21 2°58.107 -999 -999 -999 -999 -999
2008-08-05 06:24:12 51°21.221 2°58.128 -999 -999 -999 -999 -999
2008-08-05 06:24:17 51°21.231 2°58.149 -999 -999 -999 -999 -999
2008-08-05 06:24:22 51°21.242 2°58.17 -999 -999 -999 -999 -999
2008-08-05 06:24:27 51°21.252 2°58.191 -999 -999 -999 -999 -999
2008-08-05 06:24:32 51°21.263 2°58.212 -999 -999 -999 -999 -999
2008-08-05 06:24:37 51°21.274 2°58.233 -999 -999 -999 -999 -999
2008-08-05 06:24:42 51°21.285 2°58.254 -999 -999 -999 -999 -999
2008-08-05 06:24:47 51°21.295 2°58.275 -999 -999 -999 -999 -999
2008-08-05 06:24:52 51°21.306 2°58.296 -999 -999 -999 -999 -999
2008-08-05 06:24:57 51°21.316 2°58.318 -999 -999 -999 -999 -999
2008-08-05 06:25:02 51°21.326 2°58.34 -999 -999 -999 -999 -999
2008-08-05 06:25:07 51°21.337 2°58.361 -999 -999 -999 -999 -999
2008-08-05 06:25:12 51°21.347 2°58.383 -999 -999 -999 -999 -999
2008-08-05 06:25:17 51°21.358 2°58.403 -999 -999 -999 -999 -999
2008-08-05 06:25:22 51°21.367 2°58.425 -999 -999 -999 -999 -999
2008-08-05 06:25:27 51°21.378 2°58.446 -999 -999 -999 -999 -999
2008-08-05 06:25:32 51°21.388 2°58.468 -999 -999 -999 -999 -999
2008-08-05 06:25:37 51°21.399 2°58.489 -999 -999 -999 -999 -999
2008-08-05 06:25:42 51°21.409 2°58.511 -999 -999 -999 -999 -999
2008-08-05 06:25:47 51°21.419 2°58.532 -999 -999 -999 -999 -999
2008-08-05 06:25:52 51°21.429 2°58.554 -999 -999 -999 -999 -999
2008-08-05 06:25:57 51°21.44 2°58.575 -999 -999 -999 -999 -999
2008-08-05 06:26:02 51°21.45 2°58.596 -999 -999 -999 -999 -999
2008-08-05 06:26:07 51°21.459 2°58.619 -999 -999 -999 -999 -999
2008-08-05 06:26:12 51°21.471 2°58.639 -999 -999 -999 -999 -999
2008-08-05 06:26:17 51°21.48 2°58.662 -999 -999 -999 -999 -999
2008-08-05 06:26:22 51°21.492 2°58.681 -999 -999 -999 -999 -999
2008-08-05 06:26:27 51°21.502 2°58.704 -999 -999 -999 -999 -999
2008-08-05 06:26:32 51°21.513 2°58.724 -999 -999 -999 -999 -999
2008-08-05 06:26:37 51°21.523 2°58.745 -999 -999 -999 -999 -999
2008-08-05 06:26:42 51°21.535 2°58.765 -999 -999 -999 -999 -999
2008-08-05 06:26:47 51°21.545 2°58.786 -999 -999 -999 -999 -999
2008-08-05 06:26:52 51°21.555 2°58.808 -999 -999 -999 -999 -999
2008-08-05 06:26:57 51°21.566 2°58.829 -999 -999 -999 -999 -999
2008-08-05 06:27:02 51°21.576 2°58.85 -999 -999 -999 -999 -999
2008-08-05 06:27:07 51°21.587 2°58.871 -999 -999 -999 -999 -999
2008-08-05 06:27:12 51°21.597 2°58.892 -999 -999 -999 -999 -999
2008-08-05 06:27:17 51°21.608 2°58.912 -999 -999 -999 -999 -999
2008-08-05 06:27:22 51°21.618 2°58.934 -999 -999 -999 -999 -999
2008-08-05 06:27:27 51°21.629 2°58.954 -999 -999 -999 -999 -999
2008-08-05 06:27:32 51°21.639 2°58.976 -999 -999 -999 -999 -999
2008-08-05 06:27:37 51°21.65 2°58.997 -999 -999 -999 -999 -999
2008-08-05 06:27:42 51°21.661 2°59.018 -999 -999 -999 -999 -999
2008-08-05 06:27:47 51°21.671 2°59.039 -999 -999 -999 -999 -999
2008-08-05 06:27:52 51°21.682 2°59.06 -999 -999 -999 -999 -999
2008-08-05 06:27:57 51°21.693 2°59.081 -999 -999 -999 -999 -999
2008-08-05 06:28:02 51°21.703 2°59.103 -999 -999 -999 -999 -999
2008-08-05 06:28:07 51°21.714 2°59.122 -999 -999 -999 -999 -999
2008-08-05 06:28:12 51°21.724 2°59.144 -999 -999 -999 -999 -999
2008-08-05 06:28:17 51°21.735 2°59.165 -999 -999 -999 -999 -999
2008-08-05 06:28:22 51°21.746 2°59.185 -999 -999 -999 -999 -999
2008-08-05 06:28:27 51°21.756 2°59.207 -999 -999 -999 -999 -999
2008-08-05 06:28:32 51°21.768 2°59.225 -999 -999 -999 -999 -999
2008-08-05 06:28:37 51°21.778 2°59.247 -999 -999 -999 -999 -999
2008-08-05 06:28:42 51°21.79 2°59.267 -999 -999 -999 -999 -999
2008-08-05 06:28:47 51°21.8 2°59.288 -999 -999 -999 -999 -999
2008-08-05 06:28:52 51°21.812 2°59.307 -999 -999 -999 -999 -999
2008-08-05 06:28:57 51°21.822 2°59.328 -999 -999 -999 -999 -999
2008-08-05 06:29:02 51°21.833 2°59.349 -999 -999 -999 -999 -999
2008-08-05 06:29:07 51°21.843 2°59.371 -999 -999 -999 -999 -999
2008-08-05 06:29:12 51°21.854 2°59.391 -999 -999 -999 -999 -999
2008-08-05 06:29:17 51°21.864 2°59.413 -999 -999 -999 -999 -999
2008-08-05 06:29:22 51°21.875 2°59.434 -999 -999 -999 -999 -999
2008-08-05 06:29:27 51°21.885 2°59.455 -999 -999 -999 -999 -999
2008-08-05 06:29:32 51°21.895 2°59.477 -999 -999 -999 -999 -999
2008-08-05 06:29:37 51°21.907 2°59.497 -999 -999 -999 -999 -999
2008-08-05 06:29:42 51°21.916 2°59.519 -999 -999 -999 -999 -999
2008-08-05 06:29:47 51°21.927 2°59.54 -999 -999 -999 -999 -999
2008-08-05 06:29:52 51°21.937 2°59.562 -999 -999 -999 -999 -999
2008-08-05 06:29:57 51°21.949 2°59.582 -999 -999 -999 -999 -999
2008-08-05 06:30:02 51°21.958 2°59.604 -999 -999 -999 -999 -999
2008-08-05 06:30:07 51°21.969 2°59.625 -999 -999 -999 -999 -999
2008-08-05 06:30:12 51°21.98 2°59.647 -999 -999 -999 -999 -999
2008-08-05 06:30:17 51°21.99 2°59.667 -999 -999 -999 -999 -999
2008-08-05 06:30:22 51°22.001 2°59.689 -999 -999 -999 -999 -999
2008-08-05 06:30:27 51°22.012 2°59.71 -999 -999 -999 -999 -999
2008-08-05 06:30:32 51°22.022 2°59.732 -999 -999 -999 -999 -999
2008-08-05 06:30:37 51°22.033 2°59.752 -999 -999 -999 -999 -999
2008-08-05 06:30:42 51°22.044 2°59.773 -999 -999 -999 -999 -999
2008-08-05 06:30:47 51°22.055 2°59.793 -999 -999 -999 -999 -999
2008-08-05 06:30:52 51°22.066 2°59.813 -999 -999 -999 -999 -999
2008-08-05 06:30:57 51°22.077 2°59.834 -999 -999 -999 -999 -999
2008-08-05 06:31:02 51°22.088 2°59.854 -999 -999 -999 -999 -999
2008-08-05 06:31:07 51°22.099 2°59.875 -999 -999 -999 -999 -999
2008-08-05 06:31:12 51°22.11 2°59.896 -999 -999 -999 -999 -999
2008-08-05 06:31:17 51°22.121 2°59.916 -999 -999 -999 -999 -999
2008-08-05 06:31:22 51°22.131 2°59.937 -999 -999 -999 -999 -999
2008-08-05 06:31:27 51°22.142 2°59.957 -999 -999 -999 -999 -999
2008-08-05 06:31:32 51°22.152 2°59.979 -999 -999 -999 -999 -999
2008-08-05 06:31:37 51°22.163 2°59.999 -999 -999 -999 -999 -999
2008-08-05 06:31:42 51°22.173 3°0.02 -999 -999 -999 -999 -999
2008-08-05 06:31:47 51°22.184 3°0.041 -999 -999 -999 -999 -999
2008-08-05 06:31:52 51°22.194 3°0.061 -999 -999 -999 -999 -999
2008-08-05 06:31:57 51°22.204 3°0.083 -999 -999 -999 -999 -999
2008-08-05 06:32:02 51°22.215 3°0.103 -999 -999 -999 -999 -999
2008-08-05 06:32:07 51°22.225 3°0.124 -999 -999 -999 -999 -999
2008-08-05 06:32:12 51°22.236 3°0.145 -999 -999 -999 -999 -999
2008-08-05 06:32:17 51°22.248 3°0.165 -999 -999 -999 -999 -999
2008-08-05 06:32:22 51°22.258 3°0.186 -999 -999 -999 -999 -999
2008-08-05 06:32:27 51°22.269 3°0.206 -999 -999 -999 -999 -999
2008-08-05 06:32:32 51°22.28 3°0.227 -999 -999 -999 -999 -999
2008-08-05 06:32:37 51°22.291 3°0.247 -999 -999 -999 -999 -999
2008-08-05 06:32:42 51°22.302 3°0.267 -999 -999 -999 -999 -999
2008-08-05 06:32:47 51°22.313 3°0.288 -999 -999 -999 -999 -999
2008-08-05 06:32:52 51°22.323 3°0.309 -999 -999 -999 -999 -999
2008-08-05 06:32:57 51°22.334 3°0.33 -999 -999 -999 -999 -999
2008-08-05 06:33:02 51°22.344 3°0.352 -999 -999 -999 -999 -999
2008-08-05 06:33:07 51°22.354 3°0.373 -999 -999 -999 -999 -999
2008-08-05 06:33:12 51°22.364 3°0.394 -999 -999 -999 -999 -999
2008-08-05 06:33:17 51°22.373 3°0.417 -999 -999 -999 -999 -999
2008-08-05 06:33:22 51°22.382 3°0.44 -999 -999 -999 -999 -999
2008-08-05 06:33:27 51°22.39 3°0.463 -999 -999 -999 -999 -999
2008-08-05 06:33:32 51°22.397 3°0.487 -999 -999 -999 -999 -999
2008-08-05 06:33:37 51°22.406 3°0.51 -999 -999 -999 -999 -999
2008-08-05 06:33:42 51°22.412 3°0.534 -999 -999 -999 -999 -999
2008-08-05 06:33:47 51°22.419 3°0.558 -999 -999 -999 -999 -999
2008-08-05 06:33:52 51°22.427 3°0.581 -999 -999 -999 -999 -999
2008-08-05 06:33:57 51°22.433 3°0.605 -999 -999 -999 -999 -999
2008-08-05 06:34:02 51°22.441 3°0.629 -999 -999 -999 -999 -999
2008-08-05 06:34:07 51°22.448 3°0.652 -999 -999 -999 -999 -999
2008-08-05 06:34:12 51°22.455 3°0.676 -999 -999 -999 -999 -999
2008-08-05 06:34:17 51°22.463 3°0.699 -999 -999 -999 -999 -999
2008-08-05 06:34:22 51°22.47 3°0.722 -999 -999 -999 -999 -999
2008-08-05 06:34:27 51°22.478 3°0.746 -999 -999 -999 -999 -999
2008-08-05 06:34:32 51°22.485 3°0.769 -999 -999 -999 -999 -999
2008-08-05 06:34:37 51°22.492 3°0.793 -999 -999 -999 -999 -999
2008-08-05 06:34:42 51°22.5 3°0.816 -999 -999 -999 -999 -999
2008-08-05 06:34:47 51°22.508 3°0.839 -999 -999 -999 -999 -999
2008-08-05 06:34:52 51°22.515 3°0.863 -999 -999 -999 -999 -999
2008-08-05 06:34:57 51°22.523 3°0.886 -999 -999 -999 -999 -999
2008-08-05 06:35:02 51°22.53 3°0.909 -999 -999 -999 -999 -999
2008-08-05 06:35:07 51°22.539 3°0.931 -999 -999 -999 -999 -999
2008-08-05 06:35:12 51°22.546 3°0.955 -999 -999 -999 -999 -999
2008-08-05 06:35:17 51°22.555 3°0.977 -999 -999 -999 -999 -999
2008-08-05 06:35:22 51°22.563 3°1 -999 -999 -999 -999 -999
2008-08-05 06:35:27 51°22.572 3°1.022 -999 -999 -999 -999 -999
2008-08-05 06:35:32 51°22.58 3°1.045 -999 -999 -999 -999 -999
2008-08-05 06:35:37 51°22.589 3°1.067 -999 -999 -999 -999 -999
2008-08-05 06:35:42 51°22.598 3°1.089 -999 -999 -999 -999 -999
2008-08-05 06:35:47 51°22.607 3°1.112 -999 -999 -999 -999 -999
2008-08-05 06:35:52 51°22.616 3°1.133 -999 -999 -999 -999 -999
2008-08-05 06:35:57 51°22.625 3°1.156 -999 -999 -999 -999 -999
2008-08-05 06:36:02 51°22.634 3°1.177 -999 -999 -999 -999 -999
2008-08-05 06:36:07 51°22.644 3°1.199 -999 -999 -999 -999 -999
2008-08-05 06:36:12 51°22.654 3°1.221 -999 -999 -999 -999 -999
2008-08-05 06:36:17 51°22.663 3°1.243 -999 -999 -999 -999 -999
2008-08-05 06:36:22 51°22.673 3°1.264 -999 -999 -999 -999 -999
2008-08-05 06:36:27 51°22.682 3°1.286 -999 -999 -999 -999 -999
2008-08-05 06:36:32 51°22.691 3°1.309 -999 -999 -999 -999 -999
2008-08-05 06:36:37 51°22.7 3°1.33 -999 -999 -999 -999 -999
2008-08-05 06:36:42 51°22.708 3°1.351 -999 -999 -999 -999 -999
2008-08-05 06:36:47 51°22.716 3°1.372 -999 -999 -999 -999 -999
2008-08-05 06:36:52 51°22.725 3°1.391 -999 -999 -999 -999 -999
2008-08-05 06:36:57 51°22.732 3°1.411 -999 -999 -999 -999 -999
2008-08-05 06:37:02 51°22.74 3°1.428 -999 -999 -999 -999 -999
2008-08-05 06:37:07 51°22.747 3°1.446 -999 -999 -999 -999 -999
2008-08-05 06:37:12 51°22.754 3°1.461 -999 -999 -999 -999 -999
2008-08-05 06:37:17 51°22.76 3°1.476 -999 -999 -999 -999 -999
2008-08-05 06:37:22 51°22.767 3°1.49 -999 -999 -999 -999 -999
2008-08-05 06:37:27 51°22.773 3°1.504 -999 -999 -999 -999 -999
2008-08-05 06:37:32 51°22.778 3°1.517 -999 -999 -999 -999 -999
2008-08-05 06:37:37 51°22.784 3°1.529 -999 -999 -999 -999 -999
2008-08-05 06:37:42 51°22.789 3°1.541 -999 -999 -999 -999 -999
2008-08-05 06:37:47 51°22.794 3°1.551 -999 -999 -999 -999 -999
2008-08-05 06:37:52 51°22.799 3°1.562 -999 -999 -999 -999 -999
2008-08-05 06:37:57 51°22.804 3°1.572 -999 -999 -999 -999 -999
2008-08-05 06:38:02 51°22.808 3°1.581 -999 -999 -999 -999 -999
2008-08-05 06:38:07 51°22.812 3°1.59 -999 -999 -999 -999 -999
2008-08-05 06:38:12 51°22.817 3°1.598 -999 -999 -999 -999 -999
2008-08-05 06:38:17 51°22.822 3°1.604 -999 -999 -999 -999 -999
2008-08-05 06:38:22 51°22.826 3°1.61 -999 -999 -999 -999 -999
2008-08-05 06:38:27 51°22.831 3°1.615 -999 -999 -999 -999 -999
2008-08-05 06:38:32 51°22.836 3°1.62 -999 -999 -999 -999 -999
2008-08-05 06:38:37 51°22.841 3°1.623 -999 -999 -999 -999 -999
2008-08-05 06:38:42 51°22.845 3°1.626 -999 -999 -999 -999 -999
2008-08-05 06:38:47 51°22.85 3°1.629 -999 -999 -999 -999 -999
2008-08-05 06:38:52 51°22.855 3°1.63 -999 -999 -999 -999 -999
2008-08-05 06:38:57 51°22.859 3°1.632 -999 -999 -999 -999 -999
2008-08-05 06:39:02 51°22.863 3°1.633 -999 -999 -999 -999 -999
2008-08-05 06:39:07 51°22.867 3°1.634 -999 -999 -999 -999 -999
2008-08-05 06:39:12 51°22.871 3°1.634 -999 -999 -999 -999 -999
2008-08-05 06:39:17 51°22.875 3°1.635 -999 -999 -999 -999 -999
2008-08-05 06:39:22 51°22.879 3°1.636 -999 -999 -999 -999 -999
2008-08-05 06:39:27 51°22.882 3°1.636 -999 -999 -999 -999 -999
2008-08-05 06:39:32 51°22.886 3°1.637 -999 -999 -999 -999 -999
2008-08-05 06:39:37 51°22.89 3°1.637 -999 -999 -999 -999 -999
2008-08-05 06:39:42 51°22.893 3°1.638 -999 -999 -999 -999 -999
2008-08-05 06:39:47 51°22.896 3°1.639 -999 -999 -999 -999 -999
2008-08-05 06:39:52 51°22.9 3°1.64 -999 -999 -999 -999 -999
2008-08-05 06:39:57 51°22.903 3°1.64 -999 -999 -999 -999 -999
2008-08-05 06:40:02 51°22.907 3°1.64 -999 -999 -999 -999 -999
2008-08-05 06:40:07 51°22.91 3°1.64 -999 -999 -999 -999 -999
2008-08-05 06:40:12 51°22.913 3°1.64 -999 -999 -999 -999 -999
2008-08-05 06:40:17 51°22.916 3°1.64 -999 -999 -999 -999 -999
2008-08-05 06:40:22 51°22.92 3°1.641 -999 -999 -999 -999 -999
2008-08-05 06:40:27 51°22.923 3°1.641 -999 -999 -999 -999 -999
2008-08-05 06:40:32 51°22.926 3°1.641 -999 -999 -999 -999 -999
2008-08-05 06:40:37 51°22.928 3°1.64 -999 -999 -999 -999 -999
2008-08-05 06:40:42 51°22.931 3°1.64 -999 -999 -999 -999 -999
2008-08-05 06:40:47 51°22.934 3°1.64 -999 -999 -999 -999 -999
2008-08-05 06:40:52 51°22.936 3°1.639 -999 -999 -999 -999 -999
2008-08-05 06:40:57 51°22.939 3°1.639 -999 -999 -999 -999 -999
2008-08-05 06:41:02 51°22.942 3°1.639 -999 -999 -999 -999 -999
2008-08-05 06:41:07 51°22.944 3°1.639 -999 -999 -999 -999 -999
2008-08-05 06:41:12 51°22.947 3°1.638 -999 -999 -999 -999 -999
2008-08-05 06:41:17 51°22.95 3°1.638 -999 -999 -999 -999 -999
2008-08-05 06:41:22 51°22.952 3°1.638 -999 -999 -999 -999 -999
2008-08-05 06:41:27 51°22.955 3°1.638 -999 -999 -999 -999 -999
2008-08-05 06:41:32 51°22.957 3°1.638 -999 -999 -999 -999 -999
2008-08-05 06:41:37 51°22.959 3°1.637 -999 -999 -999 -999 -999
2008-08-05 06:41:42 51°22.961 3°1.637 -999 -999 -999 -999 -999
2008-08-05 06:41:47 51°22.963 3°1.637 -999 -999 -999 -999 -999
2008-08-05 06:41:52 51°22.964 3°1.636 -999 -999 -999 -999 -999
2008-08-05 06:41:57 51°22.966 3°1.636 -999 -999 -999 -999 -999
2008-08-05 06:42:02 51°22.967 3°1.636 -999 -999 -999 -999 -999
2008-08-05 06:42:07 51°22.969 3°1.636 -999 -999 -999 -999 -999
2008-08-05 06:42:12 51°22.97 3°1.635 -999 -999 -999 -999 -999
2008-08-05 06:42:17 51°22.972 3°1.636 -999 -999 -999 -999 -999
2008-08-05 06:42:22 51°22.973 3°1.635 -999 -999 -999 -999 -999
2008-08-05 06:42:27 51°22.975 3°1.635 -999 -999 -999 -999 -999
2008-08-05 06:42:32 51°22.976 3°1.634 -999 -999 -999 -999 -999
2008-08-05 06:42:37 51°22.977 3°1.634 -999 -999 -999 -999 -999
2008-08-05 06:42:42 51°22.979 3°1.633 -999 -999 -999 -999 -999
2008-08-05 06:42:47 51°22.98 3°1.633 -999 -999 -999 -999 -999
2008-08-05 06:42:52 51°22.981 3°1.632 -999 -999 -999 -999 -999
2008-08-05 06:42:57 51°22.983 3°1.632 -999 -999 -999 -999 -999
2008-08-05 06:43:02 51°22.984 3°1.632 -999 -999 -999 -999 -999
2008-08-05 06:43:07 51°22.985 3°1.631 -999 -999 -999 -999 -999
2008-08-05 06:43:12 51°22.986 3°1.631 -999 -999 -999 -999 -999
2008-08-05 06:43:17 51°22.987 3°1.63 -999 -999 -999 -999 -999
2008-08-05 06:43:22 51°22.988 3°1.629 -999 -999 -999 -999 -999
2008-08-05 06:43:27 51°22.989 3°1.629 -999 -999 -999 -999 -999
2008-08-05 06:43:32 51°22.991 3°1.629 -999 -999 -999 -999 -999
2008-08-05 06:43:37 51°22.992 3°1.628 -999 -999 -999 -999 -999
2008-08-05 06:43:42 51°22.993 3°1.628 -999 -999 -999 -999 -999
2008-08-05 06:43:47 51°22.994 3°1.627 -999 -999 -999 -999 -999
2008-08-05 06:43:52 51°22.995 3°1.626 -999 -999 -999 -999 -999
2008-08-05 06:43:57 51°22.996 3°1.626 -999 -999 -999 -999 -999
2008-08-05 06:44:02 51°22.997 3°1.626 -999 -999 -999 -999 -999
2008-08-05 06:44:07 51°22.998 3°1.625 -999 -999 -999 -999 -999
2008-08-05 06:44:12 51°22.998 3°1.625 -999 -999 -999 -999 -999
2008-08-05 06:44:17 51°22.999 3°1.624 -999 -999 -999 -999 -999
2008-08-05 06:44:22 51°23 3°1.623 -999 -999 -999 -999 -999
2008-08-05 06:44:27 51°23.001 3°1.623 -999 -999 -999 -999 -999
2008-08-05 06:44:32 51°23.002 3°1.622 -999 -999 -999 -999 -999
2008-08-05 06:44:37 51°23.003 3°1.622 -999 -999 -999 -999 -999
2008-08-05 06:44:42 51°23.004 3°1.621 -999 -999 -999 -999 -999
2008-08-05 06:44:47 51°23.004 3°1.621 -999 -999 -999 -999 -999
2008-08-05 06:44:52 51°23.005 3°1.62 -999 -999 -999 -999 -999
2008-08-05 06:44:57 51°23.006 3°1.62 -999 -999 -999 -999 -999
2008-08-05 06:45:02 51°23.007 3°1.62 -999 -999 -999 -999 -999
2008-08-05 06:45:07 51°23.008 3°1.619 -999 -999 -999 -999 -999
2008-08-05 06:45:12 51°23.009 3°1.619 -999 -999 -999 -999 -999
2008-08-05 06:45:17 51°23.009 3°1.619 -999 -999 -999 -999 -999
2008-08-05 06:45:22 51°23.01 3°1.618 -999 -999 -999 -999 -999
2008-08-05 06:45:27 51°23.011 3°1.618 -999 -999 -999 -999 -999
2008-08-05 06:45:32 51°23.012 3°1.618 -999 -999 -999 -999 -999
2008-08-05 06:45:37 51°23.013 3°1.617 -999 -999 -999 -999 -999
2008-08-05 06:45:42 51°23.013 3°1.617 -999 -999 -999 -999 -999
2008-08-05 06:45:47 51°23.014 3°1.616 -999 -999 -999 -999 -999
2008-08-05 06:45:52 51°23.015 3°1.616 -999 -999 -999 -999 -999
2008-08-05 06:45:57 51°23.015 3°1.616 -999 -999 -999 -999 -999
2008-08-05 06:46:02 51°23.016 3°1.615 -999 -999 -999 -999 -999
2008-08-05 06:46:07 51°23.017 3°1.615 -999 -999 -999 -999 -999
2008-08-05 06:46:12 51°23.018 3°1.615 -999 -999 -999 -999 -999
2008-08-05 06:46:17 51°23.018 3°1.614 -999 -999 -999 -999 -999
2008-08-05 06:46:22 51°23.019 3°1.614 -999 -999 -999 -999 -999
2008-08-05 06:46:27 51°23.019 3°1.614 -999 -999 -999 -999 -999
2008-08-05 06:46:32 51°23.02 3°1.613 -999 -999 -999 -999 -999
2008-08-05 06:46:37 51°23.021 3°1.613 -999 -999 -999 -999 -999
2008-08-05 06:46:42 51°23.021 3°1.613 -999 -999 -999 -999 -999
2008-08-05 06:46:47 51°23.022 3°1.613 -999 -999 -999 -999 -999
2008-08-05 06:46:52 51°23.023 3°1.612 -999 -999 -999 -999 -999
2008-08-05 06:46:57 51°23.023 3°1.612 -999 -999 -999 -999 -999
2008-08-05 06:47:02 51°23.024 3°1.611 -999 -999 -999 -999 -999
2008-08-05 06:47:07 51°23.024 3°1.611 -999 -999 -999 -999 -999
2008-08-05 06:47:12 51°23.025 3°1.61 -999 -999 -999 -999 -999
2008-08-05 06:47:17 51°23.026 3°1.61 -999 -999 -999 -999 -999
2008-08-05 06:47:22 51°23.026 3°1.61 -999 -999 -999 -999 -999
2008-08-05 06:47:27 51°23.027 3°1.61 -999 -999 -999 -999 -999
2008-08-05 06:47:32 51°23.028 3°1.609 -999 -999 -999 -999 -999
2008-08-05 06:47:37 51°23.028 3°1.609 -999 -999 -999 -999 -999
2008-08-05 06:47:42 51°23.029 3°1.609 -999 -999 -999 -999 -999
2008-08-05 06:47:47 51°23.03 3°1.608 -999 -999 -999 -999 -999
2008-08-05 06:47:52 51°23.031 3°1.608 -999 -999 -999 -999 -999
2008-08-05 06:47:57 51°23.031 3°1.608 -999 -999 -999 -999 -999
2008-08-05 06:48:02 51°23.032 3°1.608 -999 -999 -999 -999 -999
2008-08-05 06:48:07 51°23.033 3°1.607 -999 -999 -999 -999 -999
2008-08-05 06:48:12 51°23.033 3°1.607 -999 -999 -999 -999 -999
2008-08-05 06:48:17 51°23.034 3°1.607 -999 -999 -999 -999 -999
2008-08-05 06:48:22 51°23.035 3°1.606 -999 -999 -999 -999 -999
2008-08-05 06:48:27 51°23.035 3°1.606 -999 -999 -999 -999 -999
2008-08-05 06:48:32 51°23.036 3°1.605 -999 -999 -999 -999 -999
2008-08-05 06:48:37 51°23.037 3°1.605 -999 -999 -999 -999 -999
2008-08-05 06:48:42 51°23.037 3°1.605 -999 -999 -999 -999 -999
2008-08-05 06:48:47 51°23.038 3°1.605 -999 -999 -999 -999 -999
2008-08-05 06:48:52 51°23.039 3°1.604 -999 -999 -999 -999 -999
2008-08-05 06:48:57 51°23.04 3°1.604 -999 -999 -999 -999 -999
2008-08-05 06:49:02 51°23.04 3°1.603 -999 -999 -999 -999 -999
2008-08-05 06:49:07 51°23.041 3°1.603 -999 -999 -999 -999 -999
2008-08-05 06:49:12 51°23.042 3°1.602 -999 -999 -999 -999 -999
2008-08-05 06:49:17 51°23.043 3°1.602 -999 -999 -999 -999 -999
2008-08-05 06:49:22 51°23.043 3°1.601 -999 -999 -999 -999 -999
2008-08-05 06:49:27 51°23.044 3°1.601 -999 -999 -999 -999 -999
2008-08-05 06:49:32 51°23.045 3°1.6 -999 -999 -999 -999 -999
2008-08-05 06:49:37 51°23.045 3°1.6 -999 -999 -999 -999 -999
2008-08-05 06:49:42 51°23.046 3°1.6 -999 -999 -999 -999 -999
2008-08-05 06:49:47 51°23.047 3°1.599 -999 -999 -999 -999 -999
2008-08-05 06:49:52 51°23.048 3°1.599 -999 -999 -999 -999 -999
2008-08-05 06:49:57 51°23.048 3°1.599 -999 -999 -999 -999 -999
2008-08-05 06:50:02 51°23.049 3°1.598 -999 -999 -999 -999 -999
2008-08-05 06:50:07 51°23.05 3°1.598 -999 -999 -999 -999 -999
2008-08-05 06:50:12 51°23.05 3°1.597 -999 -999 -999 -999 -999
2008-08-05 06:50:17 51°23.051 3°1.597 -999 -999 -999 -999 -999
2008-08-05 06:50:22 51°23.052 3°1.596 -999 -999 -999 -999 -999
2008-08-05 06:50:27 51°23.053 3°1.596 -999 -999 -999 -999 -999
2008-08-05 06:50:32 51°23.053 3°1.595 -999 -999 -999 -999 -999
2008-08-05 06:50:37 51°23.054 3°1.595 -999 -999 -999 -999 -999
2008-08-05 06:50:42 51°23.055 3°1.594 -999 -999 -999 -999 -999
2008-08-05 06:50:47 51°23.055 3°1.594 -999 -999 -999 -999 -999
2008-08-05 06:50:52 51°23.056 3°1.594 -999 -999 -999 -999 -999
2008-08-05 06:50:57 51°23.057 3°1.593 -999 -999 -999 -999 -999
2008-08-05 06:51:02 51°23.058 3°1.593 -999 -999 -999 -999 -999
2008-08-05 06:51:07 51°23.06 3°1.592 -999 -999 -999 -999 -999
2008-08-05 06:51:12 51°23.062 3°1.592 -999 -999 -999 -999 -999
2008-08-05 06:51:17 51°23.064 3°1.59 -999 -999 -999 -999 -999
2008-08-05 06:51:22 51°23.067 3°1.59 -999 -999 -999 -999 -999
2008-08-05 06:51:27 51°23.071 3°1.589 -999 -999 -999 -999 -999
2008-08-05 06:51:32 51°23.075 3°1.59 -999 -999 -999 -999 -999
2008-08-05 06:51:37 51°23.079 3°1.59 -999 -999 -999 -999 -999
2008-08-05 06:51:42 51°23.084 3°1.592 -999 -999 -999 -999 -999
2008-08-05 06:51:47 51°23.088 3°1.594 -999 -999 -999 -999 -999
2008-08-05 06:51:52 51°23.093 3°1.598 -999 -999 -999 -999 -999
2008-08-05 06:51:57 51°23.097 3°1.602 -999 -999 -999 -999 -999
2008-08-05 06:52:02 51°23.1 3°1.607 -999 -999 -999 -999 -999
2008-08-05 06:52:07 51°23.103 3°1.613 -999 -999 -999 -999 -999
2008-08-05 06:52:12 51°23.106 3°1.619 -999 -999 -999 -999 -999
2008-08-05 06:52:17 51°23.108 3°1.625 -999 -999 -999 -999 -999
2008-08-05 06:52:22 51°23.109 3°1.632 -999 -999 -999 -999 -999
2008-08-05 06:52:27 51°23.11 3°1.639 -999 -999 -999 -999 -999
2008-08-05 06:52:32 51°23.11 3°1.647 -999 -999 -999 -999 -999
2008-08-05 06:52:37 51°23.109 3°1.654 -999 -999 -999 -999 -999
2008-08-05 06:52:42 51°23.107 3°1.661 -999 -999 -999 -999 -999
2008-08-05 06:52:47 51°23.105 3°1.667 -999 -999 -999 -999 -999
2008-08-05 06:52:52 51°23.102 3°1.673 -999 -999 -999 -999 -999
2008-08-05 06:52:57 51°23.099 3°1.678 -999 -999 -999 -999 -999
2008-08-05 06:53:02 51°23.095 3°1.681 -999 -999 -999 -999 -999
2008-08-05 06:53:07 51°23.092 3°1.685 -999 -999 -999 -999 -999
2008-08-05 06:53:12 51°23.089 3°1.687 -999 -999 -999 -999 -999
2008-08-05 06:53:17 51°23.086 3°1.69 -999 -999 -999 -999 -999
2008-08-05 06:53:22 51°23.083 3°1.692 -999 -999 -999 -999 -999
2008-08-05 06:53:27 51°23.081 3°1.695 -999 -999 -999 -999 -999